Manuel Greco

Olheiro-Chefe - Empoli
3 Dez 2028
Domingo
Processo

Personalidade

Adaptabilidade (12) Ambição (2) Controvérsia (17) Lealdade (10) Pressão (12) Profissionalismo (2) Espírito Esportivo (16) Temperamento (19)

Perfil

Estilo de Treinamento Democrático
Licença Continental B
Determinação 4
Gestão de Pessoas 13
Motivação 10
Disciplina 4
Satisfação no Trabalho
44%
Fadiga
0%
Função Olheiro-Chefe
Salário 13.5K p/s
Contrato 14.03.2030

Desempenho

Comportamento Bom
Eficácia do Treinamento
21%
Desenvolvimento do Jogador
50%
Prevenção de Lesões
25%
Implementação Tática
60%

Eventos Recentes

Participou de uma reunião de recrutamento agora
Recomendou um alvo de transferência agora
Recomendou um alvo de transferência agora
Recomendou um alvo de transferência agora
Recomendou um alvo de transferência 7d atrás
Recomendou um alvo de transferência 7d atrás
Recomendou um alvo de transferência 7d atrás
Recomendou um alvo de transferência 7d atrás

Monitorando agora

139
Jogador Clube Status Habilidade Confiança Observado Última observação Último voto
Stefano Mazzini Carrarese Ativo 109 / 102 65% 1 07.08.2028 Aprovar
André Miranda Porto Ativo 112 / 119 40% 3 31.05.2028 -
Ben Broggio Mansfield Town Ativo 107 / 117 40% 1 31.05.2028 -
Francisco Fernandes Porto Ativo 94 / 109 40% 1 31.05.2028 -
Alessio Insignito Spezia Ativo 95 / 110 40% 4 13.05.2028 -
Tobías Ramírez River Plate Ativo 117 / 131 40% 1 10.05.2028 -
Nicolò Moranduzzo Renate Ativo 101 / 103 40% 5 09.05.2028 -
Jan Bürger Northampton Town Ativo 126 / 124 40% 4 09.05.2028 -
Kiani Inge Groningen Ativo 107 / 120 40% 4 07.05.2028 -
Christos Mouzakitis Hull City Ativo 129 / 143 40% 2 07.05.2028 -
Ayden Heaven Portsmouth Ativo 144 / 150 40% 2 06.05.2028 -
Abubakar Adams Aduana Stars Ativo 82 / 93 40% 2 03.05.2028 -
Jorthy Mokio ADO Den Haag Ativo 135 / 137 40% 3 02.05.2028 -
Riquelme Thompson-Jones Accrington Stanley Ativo 105 / 115 40% 1 02.05.2028 -
Augusto Bando Ascoli Ativo 113 / 114 40% 3 01.05.2028 -
Vittorio Magni Cesena Ativo 102 / 117 40% 1 01.05.2028 -
Simone Suppa Virtus Verona Ativo 83 / 94 40% 6 30.04.2028 -
Federico Matarán Giana Erminio Ativo 107 / 110 40% 3 28.04.2028 -
Andrea Cogoni Cosenza Ativo 100 / 112 40% 2 27.04.2028 -
Tyler Fletcher Rotherham United Ativo 114 / 115 40% 1 27.04.2028 -
Josh Nichols Oldham Athletic Ativo 117 / 125 40% 3 24.04.2028 -
Denys Smetana Rukh Ativo 109 / 104 40% 1 24.04.2028 -
Fabio Rispoli Como Ativo 115 / 124 40% 1 23.04.2028 -
Bernardo Lima Porto Ativo 112 / 117 40% 5 21.04.2028 -
Bence Szakos Aris Ativo 94 / 96 40% 3 21.04.2028 -
Musa Danjuma Umraniyespor Ativo 108 / 106 40% 1 19.04.2028 -
Kelian Le Pironnec Mirandés Ativo 92 / 102 40% 1 18.04.2028 -
Trey Nyoni Rotherham United Ativo 142 / 146 40% 3 16.04.2028 -
Martim Cunha Porto Ativo 115 / 111 40% 3 14.04.2028 -
Andrea Bertoncini Triestina Ativo 87 / 98 40% 2 12.04.2028 -
Andrey Ivlev Nizhniy Novgorod Ativo 108 / 124 40% 5 11.04.2028 -
Matvey Bardachev Zenit Ativo 104 / 115 40% 1 08.04.2028 -
Amine Boukamir Charleroi Ativo 104 / 108 40% 3 30.03.2028 -
Othniël Raterink Cagliari Ativo 124 / 120 40% 2 30.03.2028 -
Jon Esenga IF Elfsborg Ativo 94 / 99 40% 2 27.03.2028 -
Tobiáš Pališčák Zlin Ativo 104 / 109 40% 1 24.03.2028 -
Luka Vušković Tottenham Ativo 139 / 151 40% 2 23.03.2028 -
Dimitar Papazov Levadiakos Ativo 85 / 97 40% 1 20.03.2028 -
Miguel Figueiredo Benfica Ativo 113 / 129 40% 2 14.03.2028 -
Claudio Martey Pianese Ativo 91 / 93 40% 1 13.03.2028 -
Josh Acheampong Everton Ativo 140 / 147 40% 1 09.03.2028 -
Toni Fruk Talleres Ativo 132 / 133 89% 1 01.01.2028 Aprovar
Sindre Walle Egeli Udinese Ativo 136 / 141 40% 4 31.12.2027 -
Pedro Baltika Ativo 125 / 135 40% 3 30.12.2027 -
Onyeuche Ujunwa Ikorodu City Ativo 98 / 88 40% 1 28.12.2027 -
Giovanni Baroni Talleres Ativo 117 / 117 40% 1 26.12.2027 -
Gorka Gorosabel Real Sociedad Ativo 116 / 121 40% 1 26.12.2027 -
Emmanuel Ndubueze Shooting Stars Ativo 82 / 103 40% 1 25.12.2027 -
Senny Mayulu Paris Saint-Germain Ativo 157 / 155 40% 1 25.12.2027 -
Joel Ezra Enyimba Ativo 89 / 102 40% 1 24.12.2027 -
Gabriele Bertolini Vicenza Ativo 112 / 109 40% 3 23.12.2027 -
İsak Vural Audace Cerignola Ativo 126 / 126 40% 1 21.12.2027 -
Edison Gruezo Guadalajara Ativo 100 / 112 40% 1 21.12.2027 -
Luighi Palmeiras Ativo 114 / 119 40% 1 20.12.2027 -
Kevin Filling AIK Ativo 108 / 114 40% 1 20.12.2027 -
Alphadjo Cissé Lecce Ativo 132 / 137 40% 2 19.12.2027 -
Chimobi Igwilo Rangers International Ativo 91 / 94 40% 1 19.12.2027 -
Cristiano Oliveira New England Revolution Ativo 94 / 95 40% 2 18.12.2027 -
Kwesi Sorotu Badori Berekum Chelsea Ativo 87 / 101 40% 1 13.12.2027 -
Kabiru Abdullahi Barau Ativo 100 / 94 40% 1 13.12.2027 -
Victor Hernandez Santa Fe Ativo 107 / 131 40% 2 10.12.2027 -
Francisco Marchant Colo-Colo Ativo 101 / 95 40% 1 06.12.2027 -
Francisco Triver River Plate Ativo 91 / 92 40% 1 06.12.2027 -
Matias Siltanen Malmo FF Ativo 113 / 133 40% 1 25.08.2027 -
Matteo Colombara Monopoli Ativo 100 / 105 65% 1 02.08.2027 Aprovar
Erick Sánchez RC Lens Ativo 139 / 139 68% 1 01.06.2027 Aprovar
Gonçalo Oliveira Benfica Ativo 103 / 113 40% 1 31.05.2027 -
Matteo Lovato Padova Ativo 127 / 135 40% 3 27.05.2027 -
Odilon Kossounou Atalanta Ativo 142 / 139 40% 6 27.05.2027 -
Alen Vukaj Alcione Milano Ativo 97 / 99 40% 1 27.05.2027 -
Enrico Delprato Parma Ativo 134 / 141 40% 8 26.05.2027 -
Cesare Casadei Torino Ativo 132 / 135 40% 2 26.05.2027 -
Ilario Monterisi Frosinone Ativo 137 / 124 40% 3 25.05.2027 -
Giorgio Scalvini Atalanta Ativo 148 / 149 40% 3 24.05.2027 -
Tommaso Pobega Bologna Ativo 130 / 145 40% 6 22.05.2027 -
Charlie Gray Fleetwood Town Ativo 84 / 96 40% 2 22.05.2027 -
Cristiano La Sorsa Trapani Ativo 87 / 95 40% 1 22.05.2027 -
Anthony Oyono Frosinone Ativo 131 / 124 40% 1 20.05.2027 -
Lewis Ferguson Bologna Ativo 153 / 136 40% 7 15.05.2027 -
Danilo Veiga Lecce Ativo 131 / 125 40% 6 15.05.2027 -
Adrián Bernabé Parma Ativo 135 / 146 40% 8 13.05.2027 -
Billy Gilmour Napoli Ativo 147 / 147 40% 3 12.05.2027 -
Víctor Guzmán Sporting CP Ativo 101 / 105 40% 2 11.05.2027 -
Riyad Idrissi Cagliari Ativo 117 / 121 40% 2 08.05.2027 -
Mitchel Bakker Modena Ativo 124 / 123 40% 3 08.05.2027 -
Niccolò Pierozzi Palermo Ativo 118 / 128 40% 1 08.05.2027 -
Gomolemo Kekana Maritzburg United Ativo 95 / 117 40% 2 07.05.2027 -
João Abreu Porto Ativo 82 / 95 40% 1 07.05.2027 -
Stefano Di Mario Virtus Entella Ativo 130 / 118 40% 3 30.04.2027 -
Jordan Zemura Udinese Ativo 143 / 138 40% 4 29.04.2027 -
Hans Nicolussi Caviglia Parma Ativo 128 / 137 40% 3 29.04.2027 -
Mattia Della Rocca Pontedera Ativo 90 / 98 40% 1 28.04.2027 -
Sascha Britschgi AC Milan Ativo 110 / 128 40% 2 22.04.2027 -
Marco Pompetti Padova Ativo 132 / 123 40% 2 22.04.2027 -
Mehdi Dorval Catanzaro Ativo 133 / 125 40% 7 20.04.2027 -
Kirill Glebov CSKA Moscow Ativo 131 / 128 40% 2 19.04.2027 -
Lucas Da Cunha Como Ativo 145 / 152 40% 3 15.04.2027 -
Alessandro Sersanti Modena Ativo 126 / 121 40% 3 11.04.2027 -
Giuseppe Leone Parma Ativo 124 / 126 40% 3 10.04.2027 -
Nana Nuhu WAFA Ativo 83 / 103 40% 3 08.04.2027 -
Riley Owen Stevenage Ativo 101 / 110 40% 1 08.04.2027 -
Tommaso Cecotti Carpi Ativo 97 / 102 40% 1 08.04.2027 -
Zack Nelson Ternana Ativo 106 / 108 40% 1 28.03.2027 -
Borna Knezović Casarano Ativo 99 / 113 40% 1 28.03.2027 -
Peter Amidu Acquah Asante Kotoko Ativo 81 / 108 40% 1 19.03.2027 -
Trevoh Chalobah Como Ativo 160 / 160 40% 4 07.03.2027 -
Thierry Rendall Correia Venezia Ativo 133 / 138 40% 3 26.02.2027 -
Thalente Mbatha Orlando Pirates Ativo 111 / 121 40% 1 20.02.2027 -
Oumar Solet Udinese Ativo 136 / 150 40% 1 11.02.2027 -
Federico Gattoni Ascoli Ativo 132 / 131 40% 1 08.02.2027 -
Matteo Zazza Altamura Ativo 103 / 103 40% 1 25.01.2027 -
Amin Sarr Hellas Verona Ativo 132 / 132 40% 3 01.01.2027 -
Santiago Pierotti Lecce Ativo 129 / 135 40% 3 30.12.2026 -
Matija Frigan Parma Ativo 128 / 132 40% 1 30.12.2026 -
Alessio Zerbin Frosinone Ativo 131 / 121 40% 1 30.12.2026 -
Matteo Rover Reggiana Ativo 117 / 113 40% 1 28.12.2026 -
Nicolò Cambiaghi Bologna Ativo 147 / 133 40% 1 26.12.2026 -
Petar Stanić Ludogorets Ativo 150 / 131 40% 1 25.12.2026 -
Giacomo Raspadori Atalanta Ativo 152 / 148 40% 2 21.12.2026 -
Louis Leroux FC Nantes Ativo 127 / 134 40% 1 21.12.2026 -
Nicolò Zaniolo Udinese Ativo 138 / 144 40% 1 18.12.2026 -
Daniel Paraschiv Bnei Sakhnin Ativo 114 / 113 40% 1 16.12.2026 -
Lorenzo Colombo Genoa Ativo 129 / 129 40% 1 15.12.2026 -
Willem Geubbels Lecce Ativo 136 / 122 40% 1 14.12.2026 -
Bongani Zungu Ajax Cape Town Ativo 117 / 133 40% 1 05.12.2026 -
Etiosa Ighodaro Kaizer Chiefs Ativo 106 / 120 40% 1 05.12.2026 -
Simphiwe Selepe Orlando Pirates Ativo 102 / 120 40% 1 27.11.2026 -
Carlos Augusto Inter Ativo 159 / 148 40% 1 22.11.2026 -
Gianluca Scamacca Atalanta Ativo 147 / 140 40% 1 19.11.2026 -
Jurgen Ekkelenkamp Udinese Ativo 126 / 124 40% 1 18.11.2026 -
David Miculescu FCSB Ativo 120 / 127 40% 1 17.11.2026 -
Martín Ojeda Orlando City Ativo 123 / 143 40% 1 15.11.2026 -
Sota Kitano Red Bull Salzburg Ativo 133 / 122 40% 1 10.11.2026 -
Luca Moro Padova Ativo 114 / 118 40% 1 07.11.2026 -
Mbekezeli Mbokazi Chicago Fire Ativo 136 / 117 40% 1 05.11.2026 -
Valentín Aguiñagalde Temperley Ativo 114 / 117 40% 1 07.10.2026 -
James Bacca La Equidad Ativo 137 / 131 40% 1 11.09.2026 -
Marcel Ruiz Crystal Palace Ativo 140 / 141 66% 1 24.08.2026 Aprovar
Franck Kessié Atalanta Ativo 136 / 143 40% 1 01.08.2026 -